User: anonymous   Login
Location: Cheching
(60.0667°N, 164.2167°W)
Time: 17:56:03
(UTC+00:00)
Language:

NOAA 15 - Orbit

View from above orbital plane
View from above orbital plane
View from above satellite
View from above satellite

Ground track
Ground track

The orbit data is extracted from the following two-line orbital elements,

1 25338U 98030A   21207.16711872  .00000085  00000-0  53796-4 0  9993
2 25338  98.6798 235.3411 0010767 162.1006 198.0555 14.26047811206764
Epoch (UTC): 26 July 2021 04:00:39
Eccentricity: 0.0010767
inclination: 98.6798°
perigee height: 797 km
apogee height: 813 km
right ascension of ascending node: 235.3411°
argument of perigee: 162.1006°
revolutions per day: 14.26047811
mean anomaly at epoch: 198.0555°
orbit number at epoch: 20676

The dashed part of the orbit path shows where the satellite is in the earth's shadow,  

DLR